Time,TemperatureF,DewpointF,PressureIn,WindDirection,WindDirectionDegrees,WindSpeedMPH,WindSpeedGustMPH,Humidity,HourlyPrecipIn,Conditions,Clouds,dailyrainin,SoftwareType,DateUTC
2013-03-07 00:01:00,33.3,27.5,29.18,NE,37,0.0,0.0,79,0.00,,SKC,0.00,VWS V14.00,2013-03-07 05:01:00,
2013-03-07 00:06:00,33.3,27.5,29.18,NE,34,0.0,3.1,79,0.00,,SKC,0.00,VWS V14.00,2013-03-07 05:06:00,
2013-03-07 00:09:00,33.3,27.5,29.18,NNE,33,0.0,3.1,79,0.00,,SKC,0.00,VWS V14.00,2013-03-07 05:09:00,
2013-03-07 00:16:00,33.3,27.5,29.18,NE,35,0.0,0.0,79,0.00,,SKC,0.00,VWS V14.00,2013-03-07 05:16:00,
2013-03-07 00:21:00,33.3,27.5,29.18,NE,51,0.0,0.0,79,0.00,,SKC,0.00,VWS V14.00,2013-03-07 05:21:00,
2013-03-07 00:26:00,33.3,27.5,29.18,North,4,0.0,2.7,79,0.00,,SKC,0.00,VWS V14.00,2013-03-07 05:26:00,
2013-03-07 00:31:00,33.3,27.5,29.18,NE,37,0.0,0.0,79,0.00,,SKC,0.00,VWS V14.00,2013-03-07 05:31:00,
2013-03-07 00:36:00,33.3,27.5,29.18,NNE,25,0.0,2.7,79,0.00,,SKC,0.00,VWS V14.00,2013-03-07 05:36:00,
2013-03-07 00:41:00,33.3,27.8,29.18,North,357,0.0,0.0,80,0.00,,SKC,0.00,VWS V14.00,2013-03-07 05:41:00,
2013-03-07 00:46:00,33.3,27.5,29.18,ENE,61,0.0,0.0,79,0.00,,SKC,0.00,VWS V14.00,2013-03-07 05:46:00,
2013-03-07 00:51:00,33.3,27.8,29.15,North,0,0.0,0.0,80,0.00,,SKC,0.00,VWS V14.00,2013-03-07 05:51:00,
2013-03-07 00:56:00,33.3,27.8,29.15,North,0,0.0,0.0,80,0.00,,SKC,0.00,VWS V14.00,2013-03-07 05:56:00,
2013-03-07 01:01:00,33.3,27.8,29.15,ENE,60,0.0,3.1,80,0.00,,SKC,0.00,VWS V14.00,2013-03-07 06:01:00,
2013-03-07 01:06:00,33.3,27.8,29.18,North,0,0.0,3.1,80,0.00,,SKC,0.00,VWS V14.00,2013-03-07 06:06:00,
2013-03-07 01:11:00,33.3,27.5,29.18,NNE,25,0.0,0.0,79,0.00,,SKC,0.00,VWS V14.00,2013-03-07 06:11:00,
2013-03-07 01:16:00,33.3,27.5,29.18,NNE,15,2.7,2.7,79,0.00,,SKC,0.00,VWS V14.00,2013-03-07 06:16:00,
2013-03-07 01:21:00,33.3,27.5,29.18,NNE,22,0.0,0.0,79,0.00,,SKC,0.00,VWS V14.00,2013-03-07 06:21:00,
2013-03-07 01:26:00,33.3,27.5,29.18,NNE,23,0.0,0.0,79,0.00,,SKC,0.00,VWS V14.00,2013-03-07 06:26:00,
2013-03-07 01:31:00,33.3,27.5,29.18,NNE,23,0.0,0.0,79,0.00,,SKC,0.00,VWS V14.00,2013-03-07 06:31:00,
2013-03-07 01:36:00,33.3,27.5,29.18,North,0,0.0,3.6,79,0.00,,SKC,0.00,VWS V14.00,2013-03-07 06:36:00,
2013-03-07 01:41:00,33.3,27.5,29.18,North,0,0.0,0.0,79,0.00,,SKC,0.00,VWS V14.00,2013-03-07 06:41:00,
2013-03-07 01:46:00,33.3,27.5,29.18,North,0,0.0,0.0,79,0.00,,SKC,0.00,VWS V14.00,2013-03-07 06:46:00,
2013-03-07 01:51:00,33.3,27.5,29.18,North,357,0.0,0.0,79,0.00,,SKC,0.00,VWS V14.00,2013-03-07 06:51:00,
2013-03-07 01:56:00,33.3,27.5,29.18,NNE,28,0.0,2.2,79,0.00,,SKC,0.00,VWS V14.00,2013-03-07 06:56:00,
2013-03-07 02:01:00,33.3,27.5,29.18,NNE,28,0.0,0.0,79,0.00,,SKC,0.00,VWS V14.00,2013-03-07 07:01:00,
2013-03-07 02:06:00,33.3,27.5,29.18,NE,37,0.0,2.7,79,0.00,,SKC,0.00,VWS V14.00,2013-03-07 07:06:00,
2013-03-07 02:11:00,33.3,27.5,29.18,NE,37,0.0,0.0,79,0.00,,SKC,0.00,VWS V14.00,2013-03-07 07:11:00,
2013-03-07 02:16:00,33.3,27.5,29.18,NNE,32,0.0,0.0,79,0.00,,SKC,0.00,VWS V14.00,2013-03-07 07:16:00,
2013-03-07 02:21:00,33.3,27.5,29.21,NNE,32,2.7,2.7,79,0.00,,SKC,0.00,VWS V14.00,2013-03-07 07:21:00,
2013-03-07 02:26:00,33.3,27.5,29.21,NNE,33,0.0,2.7,79,0.00,,SKC,0.00,VWS V14.00,2013-03-07 07:26:00,
2013-03-07 02:31:00,33.3,27.5,29.21,NNE,33,0.0,0.0,79,0.00,,SKC,0.00,VWS V14.00,2013-03-07 07:31:00,
2013-03-07 02:36:00,33.3,27.5,29.21,NNE,33,0.0,0.0,79,0.00,,SKC,0.00,VWS V14.00,2013-03-07 07:36:00,
2013-03-07 02:41:00,33.3,27.5,29.21,NNE,30,0.0,0.0,79,0.00,,SKC,0.00,VWS V14.00,2013-03-07 07:41:00,
2013-03-07 02:46:00,33.3,27.5,29.18,NNE,30,0.0,0.0,79,0.00,,SKC,0.00,VWS V14.00,2013-03-07 07:46:00,
2013-03-07 02:51:00,33.3,27.5,29.18,NNE,30,0.0,0.0,79,0.00,,SKC,0.00,VWS V14.00,2013-03-07 07:51:00,
2013-03-07 02:56:00,33.3,27.5,29.18,NNE,30,0.0,0.0,79,0.00,,SKC,0.00,VWS V14.00,2013-03-07 07:56:00,
2013-03-07 03:01:00,33.3,27.5,29.18,North,6,0.0,0.0,79,0.00,,SKC,0.00,VWS V14.00,2013-03-07 08:01:00,
2013-03-07 03:06:00,33.3,27.5,29.18,NNE,29,0.0,0.0,79,0.00,,SKC,0.00,VWS V14.00,2013-03-07 08:06:00,
2013-03-07 03:12:00,33.3,27.5,29.18,NE,55,0.0,0.0,79,0.00,,SKC,0.00,VWS V14.00,2013-03-07 08:12:00,
2013-03-07 03:17:00,33.3,27.5,29.18,NNE,25,0.0,3.6,79,0.00,,SKC,0.00,VWS V14.00,2013-03-07 08:17:00,
2013-03-07 03:22:00,33.3,27.5,29.18,East,81,0.0,0.0,79,0.00,,SKC,0.00,VWS V14.00,2013-03-07 08:22:00,
2013-03-07 03:27:00,33.3,27.5,29.18,NNE,27,0.0,0.0,79,0.00,,SKC,0.00,VWS V14.00,2013-03-07 08:27:00,
2013-03-07 03:32:00,33.3,27.5,29.18,NNE,27,0.0,0.0,79,0.00,,SKC,0.00,VWS V14.00,2013-03-07 08:32:00,
2013-03-07 03:37:00,33.3,27.5,29.21,NNE,30,5.9,5.9,79,0.00,,SKC,0.00,VWS V14.00,2013-03-07 08:37:00,
2013-03-07 03:42:00,33.3,27.5,29.21,North,4,0.0,0.0,79,0.00,,SKC,0.00,VWS V14.00,2013-03-07 08:42:00,
2013-03-07 03:47:00,33.3,27.5,29.21,North,4,0.0,0.0,79,0.00,,SKC,0.00,VWS V14.00,2013-03-07 08:47:00,
2013-03-07 03:52:00,33.3,27.5,29.21,NE,38,0.0,3.6,79,0.00,,SKC,0.00,VWS V14.00,2013-03-07 08:52:00,
2013-03-07 03:57:00,33.3,27.5,29.21,NE,38,0.0,3.6,79,0.00,,SKC,0.00,VWS V14.00,2013-03-07 08:57:00,
2013-03-07 04:02:00,33.3,27.5,29.21,NE,38,0.0,0.0,79,0.00,,SKC,0.00,VWS V14.00,2013-03-07 09:02:00,
2013-03-07 04:07:00,33.3,27.5,29.21,NE,38,0.0,0.0,79,0.00,,SKC,0.00,VWS V14.00,2013-03-07 09:07:00,
2013-03-07 04:12:00,33.3,27.5,29.21,NNE,31,0.0,0.0,79,0.00,,SKC,0.00,VWS V14.00,2013-03-07 09:12:00,
2013-03-07 04:17:00,33.3,27.5,29.21,NNE,30,0.0,3.6,79,0.00,,SKC,0.00,VWS V14.00,2013-03-07 09:17:00,
2013-03-07 04:22:00,33.3,27.5,29.21,North,353,0.0,0.0,79,0.00,,SKC,0.00,VWS V14.00,2013-03-07 09:22:00,
2013-03-07 04:27:00,33.3,27.5,29.21,NNE,24,0.0,3.6,79,0.00,,SKC,0.00,VWS V14.00,2013-03-07 09:27:00,
2013-03-07 04:32:00,33.3,27.1,29.21,NE,36,0.0,0.0,78,0.00,,SKC,0.00,VWS V14.00,2013-03-07 09:32:00,
2013-03-07 04:37:00,33.3,27.1,29.21,NE,37,0.0,2.7,78,0.00,,SKC,0.00,VWS V14.00,2013-03-07 09:37:00,
2013-03-07 04:42:00,33.3,27.1,29.21,NW,313,0.0,0.0,78,0.00,,SKC,0.00,VWS V14.00,2013-03-07 09:42:00,
2013-03-07 04:50:00,33.3,27.1,29.23,NNE,17,0.0,3.6,78,0.00,,SKC,0.00,VWS V14.00,2013-03-07 09:50:00,
2013-03-07 04:57:00,33.3,27.1,29.23,NE,34,3.2,5.4,78,0.00,,SKC,0.00,VWS V14.00,2013-03-07 09:57:00,
2013-03-07 05:02:00,33.3,27.1,29.23,NNE,25,0.0,2.7,78,0.00,,SKC,0.00,VWS V14.00,2013-03-07 10:02:00,
2013-03-07 05:07:00,33.3,27.1,29.23,NE,38,0.0,2.7,78,0.00,,SKC,0.00,VWS V14.00,2013-03-07 10:07:00,
2013-03-07 05:12:00,33.4,27.3,29.23,NNE,26,0.0,4.0,78,0.00,,SKC,0.00,VWS V14.00,2013-03-07 10:12:00,
2013-03-07 05:17:00,33.4,27.3,29.23,NE,44,5.9,5.9,78,0.00,,SKC,0.00,VWS V14.00,2013-03-07 10:17:00,
2013-03-07 05:22:00,33.4,27.0,29.23,NE,45,0.0,0.0,77,0.00,,SKC,0.00,VWS V14.00,2013-03-07 10:22:00,
2013-03-07 05:27:00,33.4,27.0,29.23,NE,37,0.0,3.6,77,0.00,,SKC,0.00,VWS V14.00,2013-03-07 10:27:00,
2013-03-07 05:32:00,33.3,26.8,29.23,NNE,32,2.7,3.6,77,0.00,,SKC,0.00,VWS V14.00,2013-03-07 10:32:00,
2013-03-07 05:37:00,33.4,27.0,29.23,North,357,0.0,5.4,77,0.00,,SKC,0.00,VWS V14.00,2013-03-07 10:37:00,
2013-03-07 05:42:00,33.4,27.0,29.23,NNE,27,0.0,0.0,77,0.00,,SKC,0.00,VWS V14.00,2013-03-07 10:42:00,
2013-03-07 05:47:00,33.4,27.0,29.21,NE,36,0.0,0.0,77,0.00,,SKC,0.00,VWS V14.00,2013-03-07 10:47:00,
2013-03-07 05:52:00,33.4,26.7,29.21,NE,39,0.0,2.7,76,0.00,,SKC,0.00,VWS V14.00,2013-03-07 10:52:00,
2013-03-07 05:57:00,33.4,26.7,29.21,NE,39,0.0,2.7,76,0.00,,SKC,0.00,VWS V14.00,2013-03-07 10:57:00,
2013-03-07 06:02:00,33.4,26.7,29.23,NE,40,3.2,5.4,76,0.00,,SKC,0.00,VWS V14.00,2013-03-07 11:02:00,
2013-03-07 06:07:00,33.4,26.7,29.23,NNE,24,0.0,5.4,76,0.00,,SKC,0.00,VWS V14.00,2013-03-07 11:07:00,
2013-03-07 06:12:00,33.4,26.7,29.23,SW,225,3.8,3.8,76,0.00,,SKC,0.00,VWS V14.00,2013-03-07 11:12:00,
2013-03-07 06:17:00,33.3,26.5,29.23,NE,38,0.0,4.9,76,0.00,,SKC,0.00,VWS V14.00,2013-03-07 11:17:00,
2013-03-07 06:22:00,33.3,26.5,29.23,NE,43,0.0,3.1,76,0.00,,SKC,0.00,VWS V14.00,2013-03-07 11:22:00,
2013-03-07 06:27:00,33.3,26.5,29.23,NNE,27,0.0,3.1,76,0.00,,SKC,0.00,VWS V14.00,2013-03-07 11:27:00,
2013-03-07 06:32:00,33.3,26.5,29.23,NE,34,0.0,2.7,76,0.00,,SKC,0.00,VWS V14.00,2013-03-07 11:32:00,
2013-03-07 06:37:00,33.3,26.5,29.23,NNE,23,0.0,3.1,76,0.00,,SKC,0.00,VWS V14.00,2013-03-07 11:37:00,
2013-03-07 06:42:00,33.3,26.5,29.23,NNE,31,0.0,3.6,76,0.00,,SKC,0.00,VWS V14.00,2013-03-07 11:42:00,
2013-03-07 06:47:00,33.3,26.5,29.23,North,0,0.0,3.6,76,0.00,,SKC,0.00,VWS V14.00,2013-03-07 11:47:00,
2013-03-07 06:52:00,33.3,26.2,29.23,NNE,32,0.0,2.7,75,0.00,,SKC,0.00,VWS V14.00,2013-03-07 11:52:00,
2013-03-07 06:57:00,33.3,26.2,29.23,NNW,343,0.0,2.7,75,0.00,,SKC,0.00,VWS V14.00,2013-03-07 11:57:00,
2013-03-07 07:02:00,33.3,26.5,29.23,NNE,32,0.0,2.2,76,0.00,,SKC,0.00,VWS V14.00,2013-03-07 12:02:00,
2013-03-07 07:07:00,33.3,26.2,29.23,NNE,33,7.5,7.5,75,0.00,,SKC,0.00,VWS V14.00,2013-03-07 12:07:00,
2013-03-07 07:12:00,33.3,26.2,29.23,NNW,341,0.0,2.7,75,0.00,,SKC,0.00,VWS V14.00,2013-03-07 12:12:00,
2013-03-07 07:17:00,33.4,26.4,29.23,NNW,339,0.0,7.6,75,0.00,,SKC,0.00,VWS V14.00,2013-03-07 12:17:00,
2013-03-07 07:22:00,33.4,26.4,29.23,NE,55,0.0,0.0,75,0.00,,SKC,0.00,VWS V14.00,2013-03-07 12:22:00,
2013-03-07 07:27:00,33.3,26.2,29.23,NNE,19,3.2,4.0,75,0.00,,SKC,0.00,VWS V14.00,2013-03-07 12:27:00,
2013-03-07 07:32:00,33.3,25.9,29.23,NNE,31,5.9,5.9,74,0.00,,SKC,0.00,VWS V14.00,2013-03-07 12:32:00,
2013-03-07 07:37:00,33.4,26.1,29.23,NE,43,2.7,4.9,74,0.00,,SKC,0.00,VWS V14.00,2013-03-07 12:37:00,
2013-03-07 07:42:00,33.4,26.1,29.23,NNE,32,0.0,3.6,74,0.00,,SKC,0.00,VWS V14.00,2013-03-07 12:42:00,
2013-03-07 07:48:00,33.4,26.1,29.23,NE,42,0.0,3.6,74,0.00,,SKC,0.00,VWS V14.00,2013-03-07 12:48:00,
2013-03-07 07:53:00,33.6,26.2,29.23,NE,34,0.0,3.1,74,0.00,,SKC,0.00,VWS V14.00,2013-03-07 12:53:00,
2013-03-07 07:58:00,33.6,26.2,29.23,NNE,26,0.0,5.4,74,0.00,,SKC,0.00,VWS V14.00,2013-03-07 12:58:00,
2013-03-07 08:03:00,33.6,26.2,29.26,North,353,0.0,0.0,74,0.00,,SKC,0.00,VWS V14.00,2013-03-07 13:03:00,
2013-03-07 08:08:00,33.6,26.2,29.26,NE,44,3.8,4.0,74,0.00,,SKC,0.00,VWS V14.00,2013-03-07 13:08:00,
2013-03-07 08:13:00,33.8,26.1,29.26,NNE,18,0.0,4.0,73,0.00,,SKC,0.00,VWS V14.00,2013-03-07 13:13:00,
2013-03-07 08:18:00,33.8,26.1,29.26,NW,314,2.7,4.0,73,0.00,,SKC,0.00,VWS V14.00,2013-03-07 13:18:00,
2013-03-07 08:23:00,34.0,26.2,29.26,NNE,31,3.2,4.0,73,0.00,,SKC,0.00,VWS V14.00,2013-03-07 13:23:00,
2013-03-07 08:28:00,34.0,26.2,29.26,NNE,19,2.7,5.4,73,0.00,,SKC,0.00,VWS V14.00,2013-03-07 13:28:00,
2013-03-07 08:33:00,34.2,26.4,29.26,North,0,0.0,4.9,73,0.00,,SKC,0.00,VWS V14.00,2013-03-07 13:33:00,
2013-03-07 08:38:00,34.3,26.6,29.26,North,10,0.0,4.9,73,0.00,,SKC,0.00,VWS V14.00,2013-03-07 13:38:00,
2013-03-07 08:43:00,34.3,26.6,29.26,NE,34,3.2,3.6,73,0.00,,SKC,0.00,VWS V14.00,2013-03-07 13:43:00,
2013-03-07 08:48:00,34.5,26.8,29.26,NNE,32,0.0,5.4,73,0.00,,SKC,0.00,VWS V14.00,2013-03-07 13:48:00,
2013-03-07 08:53:00,34.9,27.1,29.26,NNE,30,0.0,4.0,73,0.00,,SKC,0.00,VWS V14.00,2013-03-07 13:53:00,
2013-03-07 08:58:00,35.1,27.0,29.26,North,5,0.0,6.3,72,0.00,,SKC,0.00,VWS V14.00,2013-03-07 13:58:00,
2013-03-07 09:03:00,35.2,27.1,29.26,North,6,0.0,2.2,72,0.00,,SKC,0.00,VWS V14.00,2013-03-07 14:03:00,
2013-03-07 09:08:00,35.6,27.5,29.26,WNW,302,0.0,4.9,72,0.00,,SKC,0.00,VWS V14.00,2013-03-07 14:08:00,
2013-03-07 09:13:00,35.8,27.3,29.26,North,11,0.0,3.6,71,0.00,,SKC,0.00,VWS V14.00,2013-03-07 14:13:00,
2013-03-07 09:18:00,36.1,27.7,29.26,NNE,25,0.0,3.6,71,0.00,,SKC,0.00,VWS V14.00,2013-03-07 14:18:00,
2013-03-07 09:23:00,36.1,27.3,29.26,NNE,26,3.8,3.8,70,0.00,,SKC,0.00,VWS V14.00,2013-03-07 14:23:00,
2013-03-07 09:28:00,36.1,27.0,29.26,NE,37,4.8,4.8,69,0.00,,SKC,0.00,VWS V14.00,2013-03-07 14:28:00,
2013-03-07 09:33:00,36.0,26.4,29.26,NNE,30,3.2,6.3,68,0.00,,SKC,0.00,VWS V14.00,2013-03-07 14:33:00,
2013-03-07 09:38:00,36.1,26.6,29.26,NNW,346,0.0,6.3,68,0.00,,SKC,0.00,VWS V14.00,2013-03-07 14:38:00,
2013-03-07 09:43:00,36.3,26.8,29.26,North,9,0.0,4.9,68,0.00,,SKC,0.00,VWS V14.00,2013-03-07 14:43:00,
2013-03-07 09:48:00,36.5,27.0,29.26,NNE,24,3.2,4.9,68,0.00,,SKC,0.00,VWS V14.00,2013-03-07 14:48:00,
2013-03-07 09:53:00,36.5,26.6,29.26,NNE,19,4.8,5.8,67,0.00,,SKC,0.00,VWS V14.00,2013-03-07 14:53:00,
2013-03-07 09:58:00,36.9,26.9,29.26,ENE,60,3.8,5.8,67,0.00,,SKC,0.00,VWS V14.00,2013-03-07 14:58:00,
2013-03-07 10:03:00,37.0,27.5,29.26,NE,51,3.2,3.6,68,0.00,,SKC,0.00,VWS V14.00,2013-03-07 15:03:00,
2013-03-07 10:08:00,37.0,27.1,29.26,ENE,67,0.0,4.0,67,0.00,,SKC,0.00,VWS V14.00,2013-03-07 15:08:00,
2013-03-07 10:13:00,37.0,27.1,29.26,North,350,4.3,5.8,67,0.00,,SKC,0.00,VWS V14.00,2013-03-07 15:13:00,
2013-03-07 10:18:00,37.0,26.4,29.26,NNW,331,0.0,5.8,65,0.00,,SKC,0.00,VWS V14.00,2013-03-07 15:18:00,
2013-03-07 10:23:00,37.0,26.4,29.26,NNE,17,4.3,7.2,65,0.00,,SKC,0.00,VWS V14.00,2013-03-07 15:23:00,
2013-03-07 10:28:00,37.0,26.8,29.26,ENE,58,7.5,7.5,66,0.00,,SKC,0.00,VWS V14.00,2013-03-07 15:28:00,
2013-03-07 10:33:00,37.0,26.4,29.26,NNE,31,0.0,5.4,65,0.00,,SKC,0.00,VWS V14.00,2013-03-07 15:33:00,
2013-03-07 10:38:00,36.9,26.2,29.26,NE,34,3.2,5.4,65,0.00,,SKC,0.00,VWS V14.00,2013-03-07 15:38:00,
2013-03-07 10:43:00,36.9,26.2,29.26,NNE,28,3.2,4.0,65,0.00,,SKC,0.00,VWS V14.00,2013-03-07 15:43:00,
2013-03-07 10:48:00,36.7,25.7,29.26,East,79,2.7,4.0,64,0.00,,SKC,0.00,VWS V14.00,2013-03-07 15:48:00,
2013-03-07 10:53:00,36.9,26.2,29.26,NNW,341,0.0,4.9,65,0.00,,SKC,0.00,VWS V14.00,2013-03-07 15:53:00,
2013-03-07 10:58:00,37.0,26.4,29.26,NW,305,0.0,4.9,65,0.00,,SKC,0.00,VWS V14.00,2013-03-07 15:58:00,
2013-03-07 11:03:00,37.2,26.5,29.26,NE,39,4.8,4.8,65,0.00,,SKC,0.00,VWS V14.00,2013-03-07 16:03:00,
2013-03-07 11:08:00,37.4,26.0,29.26,North,357,5.4,6.3,63,0.00,,SKC,0.00,VWS V14.00,2013-03-07 16:08:00,
2013-03-07 11:13:00,37.4,26.0,29.26,NNE,13,0.0,5.4,63,0.00,,SKC,0.00,VWS V14.00,2013-03-07 16:13:00,
2013-03-07 11:18:00,37.8,26.3,29.26,NNE,17,2.7,5.4,63,0.00,,SKC,0.00,VWS V14.00,2013-03-07 16:18:00,
2013-03-07 11:23:00,37.9,26.9,29.26,North,353,0.0,2.7,64,0.00,,SKC,0.00,VWS V14.00,2013-03-07 16:23:00,
2013-03-07 11:30:00,38.3,26.8,29.26,NNE,31,3.8,5.4,63,0.00,,SKC,0.00,VWS V14.00,2013-03-07 16:30:00,
2013-03-07 11:39:00,38.5,27.0,29.26,North,5,0.0,4.9,63,0.00,,SKC,0.00,VWS V14.00,2013-03-07 16:39:00,
2013-03-07 11:44:00,38.7,27.2,29.26,North,7,0.0,3.1,63,0.00,,SKC,0.00,VWS V14.00,2013-03-07 16:44:00,
2013-03-07 11:49:00,38.7,27.5,29.29,North,9,0.0,3.1,64,0.00,,SKC,0.00,VWS V14.00,2013-03-07 16:49:00,
2013-03-07 11:59:00,38.8,27.7,29.29,NW,325,0.0,5.4,64,0.00,,SKC,0.00,VWS V14.00,2013-03-07 16:59:00,
2013-03-07 12:04:00,38.8,27.3,29.26,NNW,339,0.0,2.2,63,0.00,,SKC,0.00,VWS V14.00,2013-03-07 17:04:00,
2013-03-07 12:09:00,39.0,27.5,29.26,NNE,26,0.0,2.7,63,0.00,,SKC,0.00,VWS V14.00,2013-03-07 17:09:00,
2013-03-07 12:14:00,39.2,27.3,29.26,ENE,62,0.0,3.6,62,0.00,,SKC,0.00,VWS V14.00,2013-03-07 17:14:00,
2013-03-07 12:19:00,39.4,27.1,29.26,NE,34,3.8,3.8,61,0.00,,SKC,0.00,VWS V14.00,2013-03-07 17:19:00,
2013-03-07 12:29:00,39.9,27.2,29.26,NNW,333,4.3,5.4,60,0.00,,SKC,0.00,VWS V14.00,2013-03-07 17:29:00,
2013-03-07 12:34:00,40.1,27.4,29.26,NNE,32,3.8,3.8,60,0.00,,SKC,0.00,VWS V14.00,2013-03-07 17:34:00,
2013-03-07 12:39:00,40.5,27.7,29.26,NNE,18,0.0,4.9,60,0.00,,SKC,0.00,VWS V14.00,2013-03-07 17:39:00,
2013-03-07 12:49:00,40.6,26.2,29.26,NE,35,0.0,6.7,56,0.00,,SKC,0.00,VWS V14.00,2013-03-07 17:49:00,
2013-03-07 12:54:00,40.6,27.0,29.26,North,353,0.0,5.8,58,0.00,,SKC,0.00,VWS V14.00,2013-03-07 17:54:00,
2013-03-07 12:59:00,40.8,26.8,29.26,NNE,29,5.9,5.9,57,0.00,,SKC,0.00,VWS V14.00,2013-03-07 17:59:00,
2013-03-07 13:10:00,41.5,27.5,29.23,North,6,3.8,4.0,57,0.00,,SKC,0.00,VWS V14.00,2013-03-07 18:10:00,
2013-03-07 13:15:00,41.7,28.0,29.23,North,5,2.7,4.9,58,0.00,,SKC,0.00,VWS V14.00,2013-03-07 18:15:00,
2013-03-07 13:20:00,41.7,27.2,29.23,North,353,0.0,4.9,56,0.00,,SKC,0.00,VWS V14.00,2013-03-07 18:20:00,
2013-03-07 13:30:00,41.5,27.5,29.23,NNW,327,0.0,4.0,57,0.00,,SKC,0.00,VWS V14.00,2013-03-07 18:30:00,
2013-03-07 13:35:00,41.5,27.0,29.23,NNE,33,0.0,2.7,56,0.00,,SKC,0.00,VWS V14.00,2013-03-07 18:35:00,
2013-03-07 13:40:00,41.4,26.9,29.23,NNE,15,0.0,5.4,56,0.00,,SKC,0.00,VWS V14.00,2013-03-07 18:40:00,
2013-03-07 13:45:00,41.5,26.6,29.23,NE,39,0.0,3.6,55,0.00,,SKC,0.00,VWS V14.00,2013-03-07 18:45:00,
2013-03-07 13:50:00,41.7,26.8,29.23,NNE,15,0.0,6.3,55,0.00,,SKC,0.00,VWS V14.00,2013-03-07 18:50:00,
2013-03-07 13:55:00,41.7,26.3,29.23,NNE,28,0.0,4.0,54,0.00,,SKC,0.00,VWS V14.00,2013-03-07 18:55:00,
2013-03-07 14:00:00,41.7,25.9,29.23,NNW,336,0.0,0.0,53,0.00,,SKC,0.00,VWS V14.00,2013-03-07 19:00:00,
2013-03-07 14:05:00,42.1,27.5,29.23,NW,312,3.2,4.0,56,0.00,,SKC,0.00,VWS V14.00,2013-03-07 19:05:00,
2013-03-07 14:10:00,42.1,27.1,29.23,NNE,14,7.0,7.0,55,0.00,,SKC,0.00,VWS V14.00,2013-03-07 19:10:00,
2013-03-07 14:15:00,42.1,26.6,29.23,NNE,29,3.2,5.8,54,0.00,,SKC,0.00,VWS V14.00,2013-03-07 19:15:00,
2013-03-07 14:20:00,42.1,26.6,29.23,NNE,28,0.0,2.2,54,0.00,,SKC,0.00,VWS V14.00,2013-03-07 19:20:00,
2013-03-07 14:25:00,42.3,26.8,29.23,NNE,18,0.0,3.6,54,0.00,,SKC,0.00,VWS V14.00,2013-03-07 19:25:00,
2013-03-07 14:30:00,42.3,26.4,29.23,East,79,2.7,2.7,53,0.00,,SKC,0.00,VWS V14.00,2013-03-07 19:30:00,
2013-03-07 14:35:00,42.3,26.8,29.23,NNE,23,2.7,3.6,54,0.00,,SKC,0.00,VWS V14.00,2013-03-07 19:35:00,
2013-03-07 14:45:00,42.3,26.4,29.23,NNE,19,4.8,4.8,53,0.00,,SKC,0.00,VWS V14.00,2013-03-07 19:45:00,
2013-03-07 14:55:00,41.9,25.6,29.23,NW,305,0.0,4.9,52,0.00,,SKC,0.00,VWS V14.00,2013-03-07 19:55:00,
2013-03-07 15:00:00,41.5,24.8,29.23,NE,54,4.8,5.4,51,0.00,,SKC,0.00,VWS V14.00,2013-03-07 20:00:00,
2013-03-07 15:05:00,41.2,25.4,29.23,NE,41,0.0,5.4,53,0.00,,SKC,0.00,VWS V14.00,2013-03-07 20:05:00,
2013-03-07 15:10:00,41.4,26.0,29.23,North,349,2.7,4.0,54,0.00,,SKC,0.00,VWS V14.00,2013-03-07 20:10:00,
2013-03-07 15:15:00,41.5,25.7,29.23,NNE,15,0.0,4.0,53,0.00,,SKC,0.00,VWS V14.00,2013-03-07 20:15:00,
2013-03-07 15:26:00,41.7,26.3,29.23,NNE,26,3.8,6.3,54,0.00,,SKC,0.00,VWS V14.00,2013-03-07 20:26:00,
2013-03-07 15:36:00,41.5,25.7,29.23,North,353,0.0,4.0,53,0.00,,SKC,0.00,VWS V14.00,2013-03-07 20:36:00,
2013-03-07 15:41:00,41.5,25.7,29.23,NNE,30,0.0,0.0,53,0.00,,SKC,0.00,VWS V14.00,2013-03-07 20:41:00,
2013-03-07 15:46:00,41.5,25.2,29.23,NW,321,0.0,3.1,52,0.00,,SKC,0.00,VWS V14.00,2013-03-07 20:46:00,
2013-03-07 15:51:00,41.4,25.1,29.23,NNE,23,2.7,4.9,52,0.00,,SKC,0.00,VWS V14.00,2013-03-07 20:51:00,
2013-03-07 15:56:00,40.8,24.1,29.23,NNE,30,0.0,4.9,51,0.00,,SKC,0.00,VWS V14.00,2013-03-07 20:56:00,
2013-03-07 16:01:00,40.6,24.4,29.23,NNE,15,0.0,0.0,52,0.00,,SKC,0.00,VWS V14.00,2013-03-07 21:01:00,
2013-03-07 16:06:00,40.6,24.9,29.23,NNW,346,0.0,3.6,53,0.00,,SKC,0.00,VWS V14.00,2013-03-07 21:06:00,
2013-03-07 16:11:00,40.6,24.9,29.23,NW,321,3.2,3.6,53,0.00,,SKC,0.00,VWS V14.00,2013-03-07 21:11:00,
2013-03-07 16:16:00,40.6,24.9,29.23,NW,311,2.7,3.6,53,0.00,,SKC,0.00,VWS V14.00,2013-03-07 21:16:00,
2013-03-07 16:26:00,40.6,24.9,29.26,North,0,2.7,4.9,53,0.00,,SKC,0.00,VWS V14.00,2013-03-07 21:26:00,
2013-03-07 16:36:00,40.3,24.5,29.26,NNE,29,2.7,3.6,53,0.00,,SKC,0.00,VWS V14.00,2013-03-07 21:36:00,
2013-03-07 16:41:00,40.3,24.5,29.26,NNE,32,5.9,8.1,53,0.00,,SKC,0.00,VWS V14.00,2013-03-07 21:41:00,
2013-03-07 16:46:00,39.9,24.2,29.26,NNE,15,0.0,8.1,53,0.00,,SKC,0.00,VWS V14.00,2013-03-07 21:46:00,
2013-03-07 16:51:00,39.7,23.6,29.26,NE,52,5.9,5.9,52,0.00,,SKC,0.00,VWS V14.00,2013-03-07 21:51:00,
2013-03-07 16:56:00,39.6,23.4,29.26,NNE,19,0.0,5.4,52,0.00,,SKC,0.00,VWS V14.00,2013-03-07 21:56:00,
2013-03-07 17:01:00,39.4,23.7,29.26,NW,324,0.0,0.0,53,0.00,,SKC,0.00,VWS V14.00,2013-03-07 22:01:00,
2013-03-07 17:10:00,39.2,23.5,29.26,NNE,33,2.7,3.1,53,0.00,,SKC,0.00,VWS V14.00,2013-03-07 22:10:00,
2013-03-07 17:17:00,38.8,23.2,29.26,North,353,4.3,5.4,53,0.00,,SKC,0.00,VWS V14.00,2013-03-07 22:17:00,
2013-03-07 17:22:00,38.8,23.2,29.26,NE,36,2.7,4.0,53,0.00,,SKC,0.00,VWS V14.00,2013-03-07 22:22:00,
2013-03-07 17:27:00,38.7,23.0,29.26,NNW,334,3.2,6.3,53,0.00,,SKC,0.00,VWS V14.00,2013-03-07 22:27:00,
2013-03-07 17:32:00,38.5,22.9,29.26,North,350,2.7,3.6,53,0.00,,SKC,0.00,VWS V14.00,2013-03-07 22:32:00,
2013-03-07 17:37:00,38.3,22.7,29.26,North,2,0.0,3.6,53,0.00,,SKC,0.00,VWS V14.00,2013-03-07 22:37:00,
2013-03-07 17:47:00,38.1,23.0,29.26,NNE,22,2.7,5.8,54,0.00,,SKC,0.00,VWS V14.00,2013-03-07 22:47:00,
2013-03-07 17:57:00,37.9,22.8,29.26,ENE,58,0.0,3.6,54,0.00,,SKC,0.00,VWS V14.00,2013-03-07 22:57:00,
2013-03-07 18:02:00,37.8,22.6,29.26,NNE,17,0.0,3.1,54,0.00,,SKC,0.00,VWS V14.00,2013-03-07 23:02:00,
2013-03-07 18:07:00,37.6,22.0,29.26,WNW,303,0.0,3.6,53,0.00,,SKC,0.00,VWS V14.00,2013-03-07 23:07:00,
2013-03-07 18:12:00,37.4,21.9,29.26,NNE,27,3.2,3.6,53,0.00,,SKC,0.00,VWS V14.00,2013-03-07 23:12:00,
2013-03-07 18:17:00,37.2,22.1,29.26,NE,37,0.0,3.6,54,0.00,,SKC,0.00,VWS V14.00,2013-03-07 23:17:00,
2013-03-07 18:22:00,37.0,22.0,29.26,East,98,3.8,3.8,54,0.00,,SKC,0.00,VWS V14.00,2013-03-07 23:22:00,
2013-03-07 18:27:00,36.9,21.8,29.26,NE,41,0.0,3.6,54,0.00,,SKC,0.00,VWS V14.00,2013-03-07 23:27:00,
2013-03-07 18:32:00,36.9,21.8,29.26,NE,39,0.0,2.7,54,0.00,,SKC,0.00,VWS V14.00,2013-03-07 23:32:00,
2013-03-07 18:37:00,36.7,21.6,29.26,NE,52,0.0,2.7,54,0.00,,SKC,0.00,VWS V14.00,2013-03-07 23:37:00,
2013-03-07 18:42:00,36.7,21.6,29.26,North,4,0.0,3.6,54,0.00,,SKC,0.00,VWS V14.00,2013-03-07 23:42:00,
2013-03-07 18:47:00,36.7,21.6,29.26,NNE,32,0.0,3.6,54,0.00,,SKC,0.00,VWS V14.00,2013-03-07 23:47:00,
2013-03-07 18:52:00,36.5,21.9,29.26,ENE,59,0.0,3.1,55,0.00,,SKC,0.00,VWS V14.00,2013-03-07 23:52:00,
2013-03-07 18:57:00,36.3,21.7,29.26,NE,37,4.3,4.9,55,0.00,,SKC,0.00,VWS V14.00,2013-03-07 23:57:00,
2013-03-07 19:02:00,36.3,21.3,29.26,NNE,15,0.0,3.1,54,0.00,,SKC,0.00,VWS V14.00,2013-03-08 00:02:00,
2013-03-07 19:07:00,36.1,21.5,29.26,NNE,28,0.0,3.1,55,0.00,,SKC,0.00,VWS V14.00,2013-03-08 00:07:00,
2013-03-07 19:12:00,36.1,21.5,29.26,NNE,24,0.0,0.0,55,0.00,,SKC,0.00,VWS V14.00,2013-03-08 00:12:00,
2013-03-07 19:17:00,36.1,21.5,29.26,NNE,23,0.0,0.0,55,0.00,,SKC,0.00,VWS V14.00,2013-03-08 00:17:00,
2013-03-07 19:22:00,36.1,21.5,29.26,NNE,30,3.2,4.9,55,0.00,,SKC,0.00,VWS V14.00,2013-03-08 00:22:00,
2013-03-07 19:27:00,36.1,21.5,29.26,NE,34,0.0,5.8,55,0.00,,SKC,0.00,VWS V14.00,2013-03-08 00:27:00,
2013-03-07 19:32:00,36.1,21.5,29.26,North,2,3.8,3.8,55,0.00,,SKC,0.00,VWS V14.00,2013-03-08 00:32:00,
2013-03-07 19:37:00,36.1,21.5,29.26,NNE,26,3.8,5.4,55,0.00,,SKC,0.00,VWS V14.00,2013-03-08 00:37:00,
2013-03-07 19:42:00,36.1,21.5,29.26,NE,54,3.2,6.7,55,0.00,,SKC,0.00,VWS V14.00,2013-03-08 00:42:00,
2013-03-07 19:47:00,36.0,21.4,29.26,North,4,4.3,6.7,55,0.00,,SKC,0.00,VWS V14.00,2013-03-08 00:47:00,
2013-03-07 19:52:00,36.0,21.4,29.26,NE,35,3.8,4.5,55,0.00,,SKC,0.00,VWS V14.00,2013-03-08 00:52:00,
2013-03-07 19:57:00,36.0,21.4,29.26,NNE,30,0.0,4.5,55,0.00,,SKC,0.00,VWS V14.00,2013-03-08 00:57:00,
2013-03-07 20:02:00,35.8,21.2,29.29,NE,46,3.8,3.8,55,0.00,,SKC,0.00,VWS V14.00,2013-03-08 01:02:00,
2013-03-07 20:07:00,35.8,21.2,29.29,NE,40,4.3,6.3,55,0.00,,SKC,0.00,VWS V14.00,2013-03-08 01:07:00,
2013-03-07 20:13:00,35.8,21.2,29.29,NE,39,4.3,4.3,55,0.00,,SKC,0.00,VWS V14.00,2013-03-08 01:13:00,
2013-03-07 20:18:00,35.8,21.2,29.29,ENE,58,3.2,5.4,55,0.00,,SKC,0.00,VWS V14.00,2013-03-08 01:18:00,
2013-03-07 20:23:00,35.8,21.2,29.29,NE,41,4.3,4.9,55,0.00,,SKC,0.00,VWS V14.00,2013-03-08 01:23:00,
2013-03-07 20:28:00,35.8,21.2,29.29,NNE,20,0.0,4.9,55,0.00,,SKC,0.00,VWS V14.00,2013-03-08 01:28:00,
2013-03-07 20:33:00,35.6,21.0,29.29,NNE,32,4.3,4.3,55,0.00,,SKC,0.00,VWS V14.00,2013-03-08 01:33:00,
2013-03-07 20:38:00,35.8,21.2,29.29,NNE,19,4.3,5.4,55,0.00,,SKC,0.00,VWS V14.00,2013-03-08 01:38:00,
2013-03-07 20:43:00,35.6,21.0,29.29,NNE,19,3.2,4.9,55,0.00,,SKC,0.00,VWS V14.00,2013-03-08 01:43:00,
2013-03-07 20:48:00,35.6,21.0,29.29,NE,45,5.9,6.3,55,0.00,,SKC,0.00,VWS V14.00,2013-03-08 01:48:00,
2013-03-07 20:53:00,35.6,21.0,29.29,NNW,344,5.9,5.9,55,0.00,,SKC,0.00,VWS V14.00,2013-03-08 01:53:00,
2013-03-07 20:58:00,35.6,21.0,29.29,NNE,27,0.0,6.3,55,0.00,,SKC,0.00,VWS V14.00,2013-03-08 01:58:00,
2013-03-07 21:03:00,35.4,20.9,29.29,NE,37,3.2,3.2,55,0.00,,SKC,0.00,VWS V14.00,2013-03-08 02:03:00,
2013-03-07 21:08:00,35.4,20.9,29.29,NE,35,0.0,3.1,55,0.00,,SKC,0.00,VWS V14.00,2013-03-08 02:08:00,
2013-03-07 21:13:00,35.2,20.7,29.29,NNW,331,3.2,3.2,55,0.00,,SKC,0.00,VWS V14.00,2013-03-08 02:13:00,
2013-03-07 21:18:00,35.2,20.7,29.26,North,4,0.0,5.4,55,0.00,,SKC,0.00,VWS V14.00,2013-03-08 02:18:00,
2013-03-07 21:23:00,35.2,20.7,29.26,NNE,25,0.0,4.9,55,0.00,,SKC,0.00,VWS V14.00,2013-03-08 02:23:00,
2013-03-07 21:28:00,35.1,21.0,29.26,NNE,28,0.0,5.4,56,0.00,,SKC,0.00,VWS V14.00,2013-03-08 02:28:00,
2013-03-07 21:33:00,35.1,21.0,29.26,NE,38,0.0,0.0,56,0.00,,SKC,0.00,VWS V14.00,2013-03-08 02:33:00,
2013-03-07 21:38:00,35.1,21.0,29.26,North,10,3.8,3.8,56,0.00,,SKC,0.00,VWS V14.00,2013-03-08 02:38:00,
2013-03-07 21:43:00,35.1,21.0,29.26,NNE,18,3.2,4.0,56,0.00,,SKC,0.00,VWS V14.00,2013-03-08 02:43:00,
2013-03-07 21:48:00,35.1,21.0,29.26,NNE,27,0.0,5.8,56,0.00,,SKC,0.00,VWS V14.00,2013-03-08 02:48:00,
2013-03-07 21:53:00,35.1,21.0,29.26,North,7,4.3,4.3,56,0.00,,SKC,0.00,VWS V14.00,2013-03-08 02:53:00,
2013-03-07 21:58:00,34.9,20.8,29.26,NNE,17,0.0,4.0,56,0.00,,SKC,0.00,VWS V14.00,2013-03-08 02:58:00,
2013-03-07 22:03:00,34.9,21.2,29.26,NW,320,0.0,0.0,57,0.00,,SKC,0.00,VWS V14.00,2013-03-08 03:03:00,
2013-03-07 22:08:00,34.9,20.8,29.26,North,0,0.0,4.0,56,0.00,,SKC,0.00,VWS V14.00,2013-03-08 03:08:00,
2013-03-07 22:13:00,34.9,20.8,29.26,North,357,0.0,0.0,56,0.00,,SKC,0.00,VWS V14.00,2013-03-08 03:13:00,
2013-03-07 22:18:00,34.7,21.0,29.26,North,2,0.0,0.0,57,0.00,,SKC,0.00,VWS V14.00,2013-03-08 03:18:00,
2013-03-07 22:23:00,34.5,20.9,29.26,NNE,13,0.0,0.0,57,0.00,,SKC,0.00,VWS V14.00,2013-03-08 03:23:00,
2013-03-07 22:28:00,34.5,20.9,29.26,NNE,21,0.0,3.6,57,0.00,,SKC,0.00,VWS V14.00,2013-03-08 03:28:00,
2013-03-07 22:33:00,34.5,20.9,29.29,North,2,0.0,3.1,57,0.00,,SKC,0.00,VWS V14.00,2013-03-08 03:33:00,
2013-03-07 22:38:00,34.5,20.9,29.29,NNE,30,0.0,3.1,57,0.00,,SKC,0.00,VWS V14.00,2013-03-08 03:38:00,
2013-03-07 22:43:00,34.5,20.9,29.29,North,0,0.0,0.0,57,0.00,,SKC,0.00,VWS V14.00,2013-03-08 03:43:00,
2013-03-07 22:48:00,34.5,20.9,29.29,NE,40,0.0,0.0,57,0.00,,SKC,0.00,VWS V14.00,2013-03-08 03:48:00,
2013-03-07 22:53:00,34.5,20.9,29.29,NNE,29,3.8,4.0,57,0.00,,SKC,0.00,VWS V14.00,2013-03-08 03:53:00,
2013-03-07 22:58:00,34.5,20.9,29.29,NE,54,0.0,4.0,57,0.00,,SKC,0.00,VWS V14.00,2013-03-08 03:58:00,
2013-03-07 23:03:00,34.3,20.7,29.26,NE,36,0.0,3.1,57,0.00,,SKC,0.00,VWS V14.00,2013-03-08 04:03:00,
2013-03-07 23:08:00,34.3,20.7,29.26,NNE,29,0.0,3.1,57,0.00,,SKC,0.00,VWS V14.00,2013-03-08 04:08:00,
2013-03-07 23:13:00,34.3,20.7,29.26,NE,35,0.0,0.0,57,0.00,,SKC,0.00,VWS V14.00,2013-03-08 04:13:00,
2013-03-07 23:18:00,34.3,20.7,29.26,NNE,24,0.0,0.0,57,0.00,,SKC,0.00,VWS V14.00,2013-03-08 04:18:00,
2013-03-07 23:23:00,34.3,20.7,29.26,NE,48,0.0,0.0,57,0.00,,SKC,0.00,VWS V14.00,2013-03-08 04:23:00,
2013-03-07 23:28:00,34.2,20.5,29.26,NNE,29,0.0,3.1,57,0.00,,SKC,0.00,VWS V14.00,2013-03-08 04:28:00,
2013-03-07 23:33:00,34.2,20.5,29.26,NNE,24,2.7,4.0,57,0.00,,SKC,0.00,VWS V14.00,2013-03-08 04:33:00,
2013-03-07 23:38:00,34.2,20.9,29.26,NNE,32,0.0,4.0,58,0.00,,SKC,0.00,VWS V14.00,2013-03-08 04:38:00,
2013-03-07 23:43:00,34.0,20.8,29.26,NNE,12,0.0,3.1,58,0.00,,SKC,0.00,VWS V14.00,2013-03-08 04:43:00,
2013-03-07 23:50:00,34.0,20.8,29.26,North,353,0.0,3.1,58,0.00,,SKC,0.00,VWS V14.00,2013-03-08 04:50:00,
2013-03-07 23:58:00,33.8,20.6,29.26,North,353,0.0,0.0,58,0.00,,SKC,0.00,VWS V14.00,2013-03-08 04:58:00,